Regional Weather Roundup
Issued by NWS

Home | Current Version | Previous Version | Text Only | Print | Product List | Glossary On
Versions: 1 2 3 4 5 6 7 8 9 10 11 12 13 14 15 16 17 18 19 20 21 22 23 24 25 26 27 28 29 30 31 32 33 34 35 36 37 38 39 40 41 42 43 44 45 46 47 48 49 50
000
ASUS43 KIND 070459
RWRIN

WEATHER ROUNDUP FOR INDIANA
NATIONAL WEATHER SERVICE INDIANAPOLIS IN
100 AM EDT TUE JUL 07 2015

NOTE: "FAIR" INDICATES FEW OR NO CLOUDS BELOW 12,000 FEET WITH NO
SIGNIFICANT WEATHER AND/OR OBSTRUCTIONS TO VISIBILITY.

* - STATION DOES NOT REPORT WEATHER SUCH AS PRECIPITATION OR FOG.

+ - STATION NOT QUALITY CONTROLLED BY THE NATIONAL WEATHER SERVICE.
    USE DATA WITH CAUTION...ESPECIALLY DEWPOINT AND RELATIVE
    HUMIDITY OBSERVATIONS.

INZ001>003-010>013-019-020-070600-
NORTHWEST INDIANA

CITY           SKY/WX    TMP DP  RH WIND       PRES   REMARKS
RENSSELAER +   CLOUDY    77  70  78 S9        29.89S

$$

LMZ046-743>745-070600-
SOUTHERN LAKE MICHIGAN

STATION/POSITION TIME  TEMP    WIND        PRES    WAVE
                       AIR SEA DIR/SP/G            HT
                 (UTC) (F)     (DEG/KT/KT) (MB)    (FT)
BURNS HARBOR     0400   77     200/ 10/ 14 1011.5F
MICHIGAN CITY    0400   76     160/ 12/ 15   N/A
5NW MICH CITY    0400   73 68  250/ 10/ 12   N/A     1

$$

INZ004-005-014>016-021>024-070600-
NORTH CENTRAL INDIANA

CITY           SKY/WX    TMP DP  RH WIND       PRES   REMARKS
GOSHEN         CLOUDY    77  70  79 S12G21    29.90F
SOUTH BEND     CLOUDY    79  71  76 S12       29.88F

$$

INZ006>009-017-018-025>027-070600-
NORTHEAST INDIANA

CITY           SKY/WX    TMP DP  RH WIND       PRES   REMARKS
ANGOLA *+        N/A     75  70  83 S7        29.91F
FORT WAYNE     CLOUDY    76  69  79 S9        29.94F

$$

INZ028-029-035-036-043>045-051>053-070600-
WEST CENTRAL INDIANA

CITY           SKY/WX    TMP DP  RH WIND       PRES   REMARKS
CRAWFORDSVL +  PTCLDY    72  65  80 S7        29.94S
GREENCASTLE +  MOCLDY    73  68  83 S5        29.96S
LAFAYETTE      MOCLDY    75  67  76 S8        29.90F
TERRE HAUTE    PTCLDY    75  73  93 S6        29.94F

$$

INZ030>032-037>040-046>048-054>057-064-065-070600-
CENTRAL INDIANA

CITY           SKY/WX    TMP DP  RH WIND       PRES   REMARKS
GREENWOOD *+   CLOUDY    75  68  78 S7        29.97F
INDIANAPOLIS   MOCLDY    77  70  79 S12       29.94F
-EAGLE CREEK   MOCLDY    77  71  82 S8        29.95F
KOKOMO *+      CLOUDY    75  70  83 S12       29.92F
MT COMFORT *+  CLOUDY    73 N/A N/A S6        29.97F
SHELBYVILLE    CLOUDY    76  71  85 S8        29.97F

$$

INZ033-034-041-042-049-050-058-059-070600-
EAST CENTRAL INDIANA

CITY           SKY/WX    TMP DP  RH WIND       PRES   REMARKS
MUNCIE         CLOUDY    76  69  79 S7        29.96F

$$

INZ060-061-067>069-081>083-085>088-070600-
SOUTHWEST INDIANA

CITY           SKY/WX    TMP DP  RH WIND       PRES   REMARKS
EVANSVILLE     PTCLDY    79  73  82 S10       29.98F
HUNTINGBURG *+ MOCLDY    75  72  88 S8        29.99F

$$

INZ062-063-066-070>080-084-089>092-070600-
SOUTH CENTRAL AND SOUTHEAST INDIANA

CITY           SKY/WX    TMP DP  RH WIND       PRES   REMARKS
BLOOMINGTON    CLOUDY    77  72  84 S9        29.97F
MADISON *+     MOCLDY    73  68  83 S5        30.03S
SEYMOUR +      CLOUDY    75  72  88 S6        29.99S

$$



USA.gov is the U.S. government's official web portal to all federal, state and local government web resources and services.